Погода в Вознесенском

Россия / Нижегородская область     54°53′28″N   42°45′40″E
темп.,
°C
ветер,
м/с
пор.,
м/с
влажн.,
%
обл.,
%
осадки,
мм/ч
давл.,
гПа
погр.,
м
13 мая, чт
чт1300:00+13вюв399067 0.1 1021309
03:00+11юв279859 0.1 1021183
06:00+12юв249434 0.0 1021173
09:00+17юв357487 0.0 1020668
12:00+17юв3785100 1.0 1018390
15:00+18юв5882100 1.5 1017909
18:00+18ю368720 1.7 1016538
21:00+14ююз22950 1.9 101714
14 мая, пт
пт1400:00+13ю11965 0.0 101810
03:00+12ююв119642 0.0 101911
06:00+13юв1294100 0.0 101974
09:00+17юв3484100 0.0 1019324
12:00+22ююв355976 0.0 10191236
15:00+24юв455372 0.0 10181517
18:00+22юв3871100 0.0 1016365
21:00+17юв31095100 2.3 1016182
15 мая, сб
сб1500:00+16юв399687 0.0 1015183
03:00+15юв3109581 0.0 1014189
06:00+16юв4119197 0.2 1014321
09:00+21ююв5105850 0.2 1013583
12:00+24ю611495 0.6 10131211
15:00+24ююз695989 0.8 10141379
18:00+22ююв41068100 0.9 1013675
21:00+16ю378397 0.9 1013139
16 мая, вс
вс1600:00+14ююз23940 0.2 101454
03:00+14ююз2296100 0.2 101415
06:00+16ю139299 0.0 1015109
09:00+21ююз24706 0.0 1015613
12:00+23ююз3549100 0.0 10151408
15:00+24юз3549100 0.1 10151283
18:00+22ююз23686 0.1 1015136
21:00+16ююз1184100 0.4 101611
17 мая, пн
пн1700:00+15с119136 0.1 101611
03:00+14св229066 0.1 101730
06:00+16св258410 0.0 1017144
09:00+22в346431 0.0 1017553
12:00+26вюв345118 0.0 10161181
15:00+27юв34465 0.0 10161046
18:00+25вюв266317 0.0 1015177
21:00+19вюв378085 0.0 1016105